Regional Weather Roundup
Issued by NWS Newport/Morehead, NC

Current Version | Previous Version | Graphics & Text | Print | Product List | Glossary On
Versions: 1 2 3 4 5 6 7 8 9 10 11 12 13 14 15 16 17 18 19 20 21 22 23 24 25 26 27 28 29 30 31 32 33 34 35 36 37 38 39 40 41 42 43 44 45 46 47 48 49 50
000 ASUS42 KMHX 042024 RWRMHX WEATHER ROUNDUP FOR EASTERN NORTH CAROLINA NATIONAL WEATHER SERVICE NEWPORT/MOREHEAD CITY NC 300 PM EST SUN DEC 04 2016 NOTE: "FAIR" INDICATES FEW OR NO CLOUDS BELOW 12,000 FEET WITH NO SIGNIFICANT WEATHER AND/OR OBSTRUCTIONS TO VISIBILITY NCZ015>017-031-032-045>047-102-103-042100- NORTH COAST CITY SKY/WX TMP DP RH WIND PRES REMARKS EDENTON CLOUDY 50 39 65 CALM 30.25R ELIZABETH CITY CLOUDY 49 35 58 NE3 30.24S KITTY HAWK CLOUDY 49 39 70 CALM 30.22S MANTEO CLOUDY 48 40 71 N7 30.24S $$ NCZ045>047-081-094-103-104-042100- CENTRAL COAST CITY SKY/WX TMP DP RH WIND PRES REMARKS FRISCO CLOUDY 51 41 68 VRB5 30.22S $$ NCZ095-097-098-100-101-042100- SOUTHERN COAST CITY SKY/WX TMP DP RH WIND PRES REMARKS BEAUFORT CLOUDY 51 42 71 N9 30.22F CEDAR ISLAND NOT AVBL JACKSONVILLE LGT RAIN 47 45 93 N8 30.21F PINEY ISLAND CLOUDY N/A N/A N/A N6 30.23S WILMINGTON CLOUDY 47 42 83 N8 30.21R $$ NCZ011>013-027>030-043-044-078>080-089-090>093-098-042100- COASTAL PLAIN CITY SKY/WX TMP DP RH WIND PRES REMARKS AHOSKIE CLOUDY 46 33 60 CALM 30.24S CLINTON RAIN 44 43 97 CALM 30.22F ELIZABETHTOWN LGT RAIN 45 43 95 NE3 30.20F GOLDSBORO CLOUDY 48 41 78 E3 30.21F GREENVILLE DRIZZLE 50 36 57 CALM 30.24S HAVELOCK CLOUDY 51 41 68 E6 30.22F KENANSVILLE LGT RAIN 45 43 93 CALM 30.23S FOG KINSTON CLOUDY 48 37 66 CALM 30.23F NEW BERN CLOUDY 50 38 63 E6 30.22F RICHLANDS LGT RAIN 46 44 93 N3 30.22F ROCKY MOUNT CLOUDY 48 36 63 CALM 30.23F WASHINGTON LGT RAIN 50 37 60 CALM 30.24S WHITEVILLE CLOUDY 46 40 80 NE5 30.18F $$ AMZ130-135-150-152-154-156-158-170-250-252-270-ANZ085-086-088-633-658-670-042100- MARINE OBSERVATIONS STATION/POSITION TIME TEMP WIND PRES WAVE SWELL AIR SEA DIR/SP/G HT/PER HT/PER (UTC) (F) (DEG/KT/KT) (MB) (FT/S) (FT/S) CHESAPEAKE LIGHT NOT AVBL 64 E VA BEACH 1950 49 60 340/ 8/ 12 1023.4 4/ 7 3/ 7 DUCK 2000 48 55 10/ 6/ 7 1023.2 2 E DUCK NOT AVBL OREGON INLET 2000 50 54 10/ 6/ 10 1023.5 13E OREGON INLT 2000 60 N/A 4/ 7 3/ 7 HATTERAS CG 2000 50 58 10/ 11/ 12 1022.8 DIAMOND BUOY 1950 55 75 360/ 10/ 14 1023.0 5/ 8 5/ 8 CAPE LOOKOUT 2000 50 10/ 9/ 11 1022.8 BEAUFORT LAB 2000 50 55 10/ 9/ 13 1022.1 30 SE NEW RVR IN 2008 55 74 40/ 14/ 17 1022.6 30 SE NEW RVR IN NOT AVBL 27 SE WRIGHTSVLE 2008 55 68 50/ 16/ 21 1021.9 5 SE WRIGHTSVLE 2008 50 63 40/ 12/ 17 1022.2 225 S CAPE HAT 1950 66 74 60/ 4/ 6 1021.1 5/ 9 5/ 9 41 SE CHARLESTON 1950 68 75 100/ 12/ 14 1019.2 3/ 5 2/ 8 $$

USA.gov is the U.S. government's official web portal to all federal, state and local government web resources and services.